Weather History for Chester, SC

Change the Weather History Date:

Saturday, January 11, 2014

  Actual Average (KUZA) Record (KUZA)
Temperature  
Mean Temperature 55 °F -  
Max Temperature 66 °F 48 °F 79 °F (1949)
Min Temperature 44 °F 30 °F 3 °F (1982)
Degree Days  
Heating Degree Days 10    
Growing Degree Days 5 (Base 50)    
Moisture  
Dew Point 51 °F    
Average Humidity 96    
Maximum Humidity 100    
Minimum Humidity 67    
Precipitation  
Precipitation 0.84 in - - ()
Sea Level Pressure  
Sea Level Pressure 29.81 in    
Wind  
Wind Speed 5 mph (SSW)    
Max Wind Speed 20 mph    
Max Gust Speed 33 mph    
Visibility 6 miles    
Events Fog , Rain , Thunderstorm    
Averages and records for this station are not official NWS values.
T = Trace of Precipitation, MM = Missing Value Source: NWS Daily Summary

Daily Weather History Graph

Daily Weather History Graph

Search for Another Location

Airport:

Trip Planner

Search our weather history database for the weather conditions in past years. The results will help you decide how hot, cold, wet, or windy it might be!

Date:

Astronomy

Jan. 11, 2014 Rise Set
Actual Time 7:32 AM EST 5:33 PM EST
Civil Twilight 7:04 AM EST 6:00 PM EST
Nautical Twilight 6:33 AM EST 6:31 PM EST
Astronomical Twilight 6:03 AM EST 7:02 PM EST
Moon 2:14 PM EST (1/11) 3:38 AM EST (1/11)
Length of Visible Light 10h 55m
Length of Day
10h 00m
Waxing Gibbous, 83% of the Moon is Illuminated
Jan 11
Waxing Gibbous
Jan 15
Full
Jan 24
Last Quarter
Jan 30
New
Feb 6
First Quarter

Hourly Weather History & Observations

Time (EST) Temp. Windchill Dew Point Humidity Pressure Visibility Wind Dir Wind Speed Gust Speed Precip Events Conditions
12:15 AM 44.6 °F 41.4 °F 44.6 °F 100% 30.07 in 1.5 mi NNE 5.8 mph - 0.01 in Rain Heavy Rain
12:35 AM 44.6 °F - 44.6 °F 100% 30.06 in 1.8 mi Calm Calm - 0.01 in   Heavy Drizzle
12:55 AM 44.6 °F 43.1 °F 44.6 °F 100% 30.05 in 1.8 mi NE 3.5 mph - 0.01 in   Light Drizzle
1:15 AM 44.6 °F 43.1 °F 44.6 °F 100% 30.04 in 1.2 mi NE 3.5 mph - 0.01 in Rain Light Rain
1:35 AM 44.6 °F 42.2 °F 44.6 °F 100% 30.02 in 2.0 mi ENE 4.6 mph - 0.01 in   Overcast
1:55 AM 44.6 °F 43.1 °F 44.6 °F 100% 30.00 in 0.8 mi NE 3.5 mph - 0.01 in   Overcast
2:15 AM 44.6 °F 43.1 °F 44.6 °F 100% 29.99 in 0.5 mi NE 3.5 mph - N/A Fog Fog
2:35 AM 46.4 °F - 46.4 °F 100% 30.00 in 0.2 mi Calm Calm - N/A Fog Fog
2:55 AM 46.4 °F - 46.4 °F 100% 29.99 in 0.5 mi Calm Calm - N/A Fog Fog
3:15 AM 46.4 °F 45.2 °F 46.4 °F 100% 29.97 in 0.5 mi East 3.5 mph - N/A Fog Fog
3:35 AM 46.4 °F - 46.4 °F 100% 29.97 in 0.5 mi Calm Calm - N/A Fog Fog
3:55 AM 46.4 °F - 46.4 °F 100% 29.96 in 0.5 mi Calm Calm - N/A Fog Fog
4:15 AM 46.4 °F 44.3 °F 46.4 °F 100% 29.93 in 0.5 mi East 4.6 mph - N/A Fog , Thunderstorm Fog
4:35 AM 46.4 °F 45.2 °F 46.4 °F 100% 29.93 in 0.5 mi East 3.5 mph - N/A Fog , Thunderstorm Fog
4:55 AM 46.4 °F - 46.4 °F 100% 29.92 in 0.2 mi Calm Calm - N/A Fog , Thunderstorm Fog
5:15 AM 46.4 °F - 46.4 °F 100% 29.92 in 0.2 mi Calm Calm - N/A Fog , Thunderstorm Unknown
5:35 AM 46.4 °F - 46.4 °F 100% 29.91 in 0.2 mi Calm Calm - N/A Fog , Thunderstorm Unknown
5:55 AM 46.4 °F - 46.4 °F 100% 29.90 in 0.2 mi Calm Calm - N/A Fog , Thunderstorm Unknown
6:15 AM 46.4 °F - 46.4 °F 100% 29.89 in 0.2 mi Calm Calm - N/A Fog , Thunderstorm Fog
6:35 AM 48.2 °F - 48.2 °F 100% 29.90 in 0.2 mi WNW 10.4 mph 20.7 mph N/A Fog , Thunderstorm Unknown
6:55 AM 51.8 °F - 51.8 °F 100% 29.92 in 0.8 mi WNW 10.4 mph 18.4 mph N/A Thunderstorm Unknown
7:15 AM 48.2 °F - 48.2 °F 100% 29.89 in 2.0 mi Calm Calm - 0.01 in Thunderstorm Unknown
7:35 AM 48.2 °F - 48.2 °F 100% 29.89 in 1.5 mi Calm Calm - 0.02 in Thunderstorm Thunderstorm
7:55 AM 48.2 °F - 48.2 °F 100% 29.87 in 2.5 mi SE 5.8 mph - 0.05 in Rain , Thunderstorm Light Thunderstorms and Rain
8:15 AM 50.0 °F - 50.0 °F 100% 29.86 in 5.0 mi SSE 5.8 mph - N/A   Light Drizzle
8:35 AM 51.8 °F - 51.8 °F 100% 29.85 in 2.0 mi SSE 9.2 mph - 0.01 in Rain Light Rain
8:55 AM 55.4 °F - 55.4 °F 100% 29.83 in 2.0 mi South 9.2 mph - 0.03 in Rain Light Rain
9:15 AM 62.6 °F - 62.6 °F 100% 29.80 in 7.0 mi South 11.5 mph 19.6 mph 0.01 in   Mostly Cloudy
9:35 AM 64.4 °F - 64.4 °F 100% 29.80 in 10.0 mi South 12.7 mph 20.7 mph 0.01 in   Mostly Cloudy
9:55 AM 64.4 °F - 64.4 °F 100% 29.78 in 10.0 mi South 10.4 mph 25.3 mph 0.01 in   Overcast
10:15 AM 64.4 °F - 64.4 °F 100% 29.77 in 10.0 mi South 15.0 mph 21.9 mph N/A Thunderstorm Overcast
10:35 AM 66.2 °F - 66.2 °F 100% 29.76 in 10.0 mi South 15.0 mph 33.4 mph N/A   Overcast
10:55 AM 66.2 °F - 66.2 °F 100% 29.76 in 10.0 mi South 19.6 mph 29.9 mph N/A   Overcast
11:15 AM 66.2 °F - 66.2 °F 100% 29.77 in 10.0 mi SSW 12.7 mph 25.3 mph N/A Rain , Thunderstorm Light Thunderstorms and Rain
11:35 AM 60.8 °F - 60.8 °F 100% 29.80 in 0.5 mi WSW 6.9 mph 20.7 mph 0.37 in   Unknown
12:15 PM 60.8 °F - 60.8 °F 100% 29.80 in 2.5 mi SW 6.9 mph - 0.03 in Rain , Thunderstorm Thunderstorms and Rain
12:35 PM 60.8 °F - 60.8 °F 100% 29.77 in 5.0 mi SW 5.8 mph - 0.06 in Rain , Thunderstorm Light Thunderstorms and Rain
12:55 PM 60.8 °F - 60.8 °F 100% 29.76 in 3.0 mi SSW 4.6 mph - 0.10 in Rain Rain
1:15 PM 60.8 °F - 60.8 °F 100% 29.77 in 2.5 mi South 3.5 mph - 0.03 in Rain Heavy Rain
1:35 PM 59.0 °F - 59.0 °F 100% 29.77 in 1.8 mi WSW 3.5 mph - 0.10 in Rain Heavy Rain
1:55 PM - - - N/A% 29.76 in 1.8 mi Calm Calm - 0.16 in   Unknown
2:15 PM - - - N/A% 29.74 in 5.0 mi Calm Calm - 0.03 in Rain , Thunderstorm Rain
2:35 PM - - - N/A% 29.72 in 5.0 mi SSE 6.9 mph - 0.05 in Thunderstorm Overcast
2:55 PM - - - N/A% 29.72 in 7.0 mi South 5.8 mph - 0.09 in   Overcast
3:15 PM - - - N/A% 29.70 in 10.0 mi SSW 6.9 mph - 0.01 in Rain , Thunderstorm Light Thunderstorms and Rain
3:35 PM - - - N/A% 29.69 in 10.0 mi SSW 4.6 mph - 0.01 in   Clear
3:55 PM - - - N/A% 29.68 in 10.0 mi South 4.6 mph - 0.01 in   Clear
4:15 PM - - - N/A% 29.69 in 10.0 mi South 8.1 mph - N/A   Mostly Cloudy
4:35 PM - - - N/A% 29.69 in 10.0 mi SSW 5.8 mph - N/A   Overcast
4:55 PM - - - N/A% 29.68 in 10.0 mi South 5.8 mph - N/A   Overcast
5:15 PM - - - N/A% 29.68 in 10.0 mi South 8.1 mph - N/A   Overcast
5:35 PM - - - N/A% 29.67 in 10.0 mi South 9.2 mph - N/A   Overcast
5:55 PM - - - N/A% 29.67 in 10.0 mi SSW 6.9 mph - N/A   Overcast
6:15 PM - - - N/A% 29.67 in 10.0 mi SSW 6.9 mph - N/A   Overcast
6:35 PM - - - N/A% 29.68 in 10.0 mi SSW 4.6 mph - N/A   Overcast
6:55 PM - - - N/A% 29.69 in 10.0 mi SW 6.9 mph - N/A   Overcast
7:15 PM - - - N/A% 29.69 in 10.0 mi SW 8.1 mph - N/A   Overcast
7:35 PM - - - N/A% 29.70 in 10.0 mi SSW 8.1 mph 17.3 mph N/A   Overcast
7:55 PM - - - N/A% 29.70 in 10.0 mi SSW 8.1 mph 17.3 mph N/A   Overcast
8:15 PM - - - N/A% 29.71 in 10.0 mi SSW 10.4 mph 17.3 mph N/A   Overcast
8:35 PM 57.2 °F - 57.2 °F 100% 29.72 in 10.0 mi SW 5.8 mph - N/A   Overcast
8:55 PM 57.2 °F - 57.2 °F 100% 29.72 in 10.0 mi SSW 5.8 mph - N/A   Overcast
9:15 PM - - - N/A% 29.72 in 10.0 mi SW 9.2 mph - N/A   Scattered Clouds
9:35 PM 57.2 °F - 48.2 °F 72% 29.72 in 10.0 mi SSW 8.1 mph 18.4 mph N/A   Scattered Clouds
9:55 PM 55.4 °F - 44.6 °F 67% 29.74 in 10.0 mi SW 5.8 mph - N/A   Scattered Clouds
10:15 PM 53.6 °F - 44.6 °F 72% 29.75 in 10.0 mi SW 5.8 mph - N/A   Clear
10:35 PM 51.8 °F - 44.6 °F 76% 29.76 in 10.0 mi WSW 3.5 mph - N/A   Scattered Clouds
10:55 PM 51.8 °F - 44.6 °F 76% 29.77 in 10.0 mi West 5.8 mph - N/A   Scattered Clouds
11:15 PM 51.8 °F - 44.6 °F 76% 29.78 in 10.0 mi WSW 3.5 mph - N/A   Clear
11:35 PM 51.8 °F - 44.6 °F 76% 29.78 in 10.0 mi WSW 5.8 mph - N/A   Clear
11:55 PM 50.0 °F - 44.6 °F 82% 29.79 in 10.0 mi WSW 4.6 mph - N/A   Clear